Overview Statistics Trail Chart Weather Telemetry Raw packets
 

This is the latest recevied weather packets stored in our database for station/object DB0BGL. If no packets are shown the sender has not sent any weather packets the latest 10 day(s).

<< 1 2 3 4 5 >>
Time Temp. Humidity Pressure Rain* Wind** Luminosity Snow
1788516728 16.67° C 46% 0 hPa 0 mm - - -
1788516128 17.22° C 47% 0 hPa 0 mm - - -
1788515527 16.67° C 47% 0 hPa 0 mm - - -
1788514927 17.22° C 47% 0 hPa 0 mm - - -
1788514326 17.22° C 48% 0 hPa 0 mm - - -
1788513725 17.78° C 47% 0 hPa 0 mm - - -
1788513125 17.22° C 49% 0 hPa 0 mm - - -
1788512524 17.78° C 49% 0 hPa 0 mm - - -
1788511924 17.78° C 48% 0 hPa 0 mm - - -
1788511323 17.78° C 47% 0 hPa 0 mm - - -
1788510723 17.22° C 49% 0 hPa 0 mm - - -
1788509821 17.22° C 49% 0 hPa 0 mm - - -
1788509220 17.22° C 49% 0 hPa 0 mm - - -
1788508620 17.22° C 48% 0 hPa 0 mm - - -
1788508019 17.78° C 48% 0 hPa 0 mm - - -
1788507418 17.22° C 48% 0 hPa 0 mm - - -
1788506818 17.22° C 50% 0 hPa 0 mm - - -
1788506217 16.67° C 50% 0 hPa 0 mm - - -
1788505617 16.11° C 53% 0 hPa 0 mm - - -
1788505016 15° C 100% 0 hPa 0 mm - - -
1788504415 15° C 100% 0 hPa 0 mm - - -
1788503815 14.44° C 100% 0 hPa 0 mm - - -
1788503214 14.44° C 100% 0 hPa 0 mm - - -
1788502613 13.89° C 61% 0 hPa 0 mm - - -
1788502013 13.89° C 100% 0 hPa 0 mm - - -

* Rain latest hour (hover to see other rain measurements)
** Current wind speed in m/s (hover to see current wind gust speed)